QPF
0.01 0.01 0.02 0.03 0.03 0.03 0.04 0.03 0.03 0.02 0.02 0.02 0.02 0.01 0.02 0.05 0.07 0.07 0.06 0.07 0.05 0.05 0.05 0.07 0.06 0.05 0.05 0.05 0.03 0.02 0.01 0.02 0.03 0.04 0.04 0.04 0.04 0.05 0.07 0.05 0.06 0.04 0.05
0.00 0.01 0.01 0.03 0.02 0.03 0.03 0.03 0.02 0.02 0.02 0.02 0.02 0.01 0.02 0.04 0.05 0.04 0.05 0.06 0.04 0.03 0.04 0.05 0.04 0.04 0.05 0.04 0.03 0.02 0.02 0.03 0.03 0.04 0.04 0.03 0.03 0.04 0.06 0.06 0.06 0.03 0.03
0.00 0.00 0.01 0.02 0.02 0.02 0.03 0.02 0.02 0.02 0.02 0.02 0.02 0.01 0.02 0.03 0.03 0.03 0.04 0.04 0.04 0.04 0.03 0.03 0.03 0.03 0.03 0.03 0.03 0.03 0.04 0.05 0.04 0.03 0.04 0.03 0.02 0.04 0.05 0.05 0.04 0.03 0.03
0.00 0.00 0.01 0.01 0.01 0.01 0.02 0.03 0.02 0.02 0.02 0.02 0.01 0.01 0.02 0.02 0.02 0.03 0.03 0.03 0.03 0.04 0.03 0.02 0.02 0.02 0.02 0.03 0.04 0.05 0.05 0.03 0.02 0.02 0.02 0.02 0.02 0.04 0.05 0.05 0.03 0.02 0.03
0.00 0.00 0.01 0.01 0.01 0.00 0.01 0.02 0.02 0.01 0.01 0.01 0.01 0.02 0.02 0.02 0.03 0.03 0.03 0.03 0.03 0.03 0.02 0.02 0.02 0.01 0.02 0.03 0.04 0.06 0.06 0.04 0.02 0.02 0.02 0.03 0.04 0.04 0.05 0.04 0.03 0.02 0.02
0.00 0.00 0.00 0.00 0.00 0.00 0.01 0.01 0.01 0.02 0.01 0.01 0.01 0.02 0.03 0.03 0.04 0.04 0.03 0.03 0.03 0.03 0.02 0.02 0.02 0.02 0.03 0.03 0.03 0.04 0.04 0.03 0.02 0.01 0.01 0.03 0.04 0.05 0.03 0.03 0.03 0.02 0.02
0.00 0.00 0.00 0.00 0.00 0.00 0.00 0.01 0.01 0.01 0.01 0.01 0.01 0.02 0.02 0.03 0.04 0.06 0.03 0.02 0.02 0.02 0.02 0.02 0.02 0.04 0.04 0.03 0.04 0.03 0.03 0.02 0.01 0.00 0.02 0.03 0.03 0.02 0.02 0.02 0.03 0.02 0.02
0.00 0.00 0.00 0.00 0.00 0.01 0.01 0.01 0.01 0.01 0.01 0.01 0.01 0.01 0.02 0.03 0.04 0.05 0.04 0.03 0.02 0.02 0.03 0.04 0.04 0.05 0.05 0.04 0.05 0.04 0.02 0.01 0.00 0.00 0.01 0.01 0.01 0.02 0.01 0.01 0.02 0.02 0.01
0.00 0.00 0.00 0.00 0.01 0.01 0.01 0.01 0.01 0.01 0.01 0.01 0.01 0.01 0.02 0.03 0.03 0.03 0.04 0.04 0.02 0.02 0.03 0.03 0.04 0.05 0.05 0.04 0.05 0.04 0.03 0.01 0.00 0.00 0.00 0.01 0.01 0.02 0.01 0.01 0.01 0.01 0.01
0.00 0.01 0.00 0.00 0.01 0.01 0.01 0.02 0.02 0.02 0.01 0.02 0.03 0.02 0.03 0.03 0.03 0.03 0.03 0.04 0.02 0.03 0.03 0.04 0.04 0.05 0.05 0.05 0.05 0.05 0.03 0.01 0.00 0.00 0.00 0.00 0.01 0.02 0.02 0.01 0.02 0.01 0.01
0.00 0.01 0.01 0.01 0.01 0.01 0.01 0.02 0.03 0.02 0.03 0.02 0.04 0.03 0.03 0.04 0.03 0.02 0.02 0.03 0.04 0.03 0.04 0.03 0.05 0.06 0.06 0.06 0.06 0.07 0.03 0.00 0.00 0.01 0.00 0.01 0.01 0.01 0.01 0.01 0.02 0.02 0.01
0.00 0.00 0.01 0.01 0.01 0.01 0.00 0.02 0.04 0.03 0.04 0.04 0.05 0.04 0.04 0.05 0.04 0.02 0.01 0.02 0.04 0.05 0.05 0.04 0.04 0.03 0.03 0.05 0.06 0.05 0.02 0.00 0.00 0.01 0.01 0.01 0.02 0.01 0.01 0.01 0.02 0.02 0.01
0.00 0.00 0.00 0.01 0.01 0.00 0.01 0.02 0.02 0.03 0.04 0.04 0.05 0.04 0.04 0.02 0.02 0.02 0.02 0.03 0.04 0.03 0.03 0.02 0.01 0.02 0.02 0.04 0.06 0.05 0.02 0.00 0.00 0.01 0.01 0.01 0.02 0.01 0.01 0.01 0.01 0.01 0.02
0.00 0.00 0.00 0.01 0.01 0.01 0.01 0.01 0.02 0.02 0.02 0.03 0.03 0.02 0.02 0.01 0.02 0.02 0.03 0.02 0.02 0.03 0.02 0.02 0.03 0.03 0.02 0.01 0.03 0.04 0.02 0.01 0.00 0.01 0.01 0.01 0.01 0.02 0.01 0.01 0.01 0.01 0.02
0.00 0.00 0.00 0.01 0.01 0.01 0.01 0.01 0.01 0.02 0.01 0.01 0.02 0.02 0.01 0.01 0.01 0.01 0.03 0.02 0.02 0.01 0.01 0.02 0.03 0.03 0.02 0.02 0.02 0.03 0.03 0.03 0.02 0.01 0.01 0.01 0.01 0.02 0.03 0.02 0.01 0.01 0.02
0.00 0.00 0.00 0.01 0.01 0.01 0.01 0.01 0.01 0.01 0.01 0.01 0.01 0.01 0.01 0.01 0.01 0.01 0.02 0.02 0.01 0.01 0.01 0.01 0.02 0.02 0.03 0.04 0.03 0.02 0.03 0.04 0.03 0.02 0.02 0.03 0.02 0.02 0.03 0.03 0.03 0.02 0.02
0.01 0.01 0.01 0.01 0.01 0.01 0.01 0.01 0.01 0.01 0.01 0.01 0.01 0.01 0.00 0.00 0.01 0.01 0.01 0.02 0.01 0.01 0.01 0.02 0.02 0.03 0.03 0.04 0.05 0.04 0.04 0.04 0.02 0.02 0.03 0.04 0.04 0.02 0.02 0.03 0.03 0.03 0.03
0.02 0.02 0.01 0.01 0.01 0.02 0.03 0.03 0.02 0.02 0.01 0.01 0.01 0.02 0.01 0.01 0.01 0.01 0.01 0.01 0.02 0.01 0.02 0.04 0.05 0.05 0.06 0.06 0.07 0.07 0.06 0.06 0.04 0.02 0.03 0.03 0.03 0.03 0.03 0.02 0.02 0.02 0.02
0.02 0.03 0.02 0.01 0.03 0.06 0.08 0.07 0.04 0.03 0.03 0.02 0.02 0.03 0.04 0.04 0.02 0.01 0.02 0.02 0.01 0.02 0.03 0.02 0.04 0.06 0.06 0.06 0.04 0.06 0.06 0.05 0.05 0.03 0.03 0.02 0.02 0.02 0.02 0.03 0.02 0.01 0.02
0.03 0.03 0.04 0.02 0.05 0.11 0.06 0.08 0.06 0.04 0.03 0.02 0.02 0.04 0.04 0.05 0.03 0.03 0.04 0.03 0.02 0.04 0.04 0.04 0.06 0.06 0.06 0.06 0.03 0.03 0.03 0.03 0.03 0.03 0.03 0.02 0.02 0.01 0.01 0.02 0.02 0.01 0.01
0.03 0.04 0.05 0.04 0.04 0.07 0.04 0.04 0.04 0.03 0.03 0.01 0.02 0.04 0.04 0.04 0.05 0.05 0.04 0.04 0.04 0.05 0.06 0.05 0.06 0.06 0.05 0.04 0.05 0.05 0.04 0.01 0.02 0.02 0.02 0.01 0.02 0.01 0.01 0.02 0.01 0.01 0.01
0.02 0.04 0.06 0.07 0.04 0.06 0.07 0.05 0.04 0.04 0.03 0.02 0.03 0.03 0.03 0.03 0.05 0.06 0.06 0.05 0.05 0.06 0.06 0.06 0.07 0.07 0.06 0.05 0.06 0.06 0.06 0.04 0.02 0.01 0.01 0.01 0.02 0.02 0.02 0.01 0.01 0.02 0.02
0.02 0.03 0.06 0.07 0.06 0.09 0.13 0.09 0.06 0.06 0.05 0.05 0.04 0.04 0.03 0.03 0.04 0.06 0.07 0.06 0.06 0.06 0.07 0.08 0.07 0.09 0.07 0.05 0.05 0.06 0.06 0.04 0.03 0.01 0.00 0.00 0.01 0.03 0.02 0.02 0.01 0.02 0.02
0.02 0.04 0.08 0.07 0.07 0.11 0.16 0.13 0.09 0.06 0.04 0.03 0.04 0.04 0.04 0.04 0.04 0.04 0.06 0.06 0.06 0.05 0.08 0.07 0.05 0.07 0.07 0.05 0.04 0.04 0.03 0.02 0.03 0.03 0.02 0.00 0.01 0.02 0.02 0.01 0.01 0.02 0.02
0.03 0.04 0.08 0.11 0.13 0.16 0.20 0.15 0.13 0.10 0.07 0.06 0.07 0.08 0.06 0.05 0.05 0.04 0.04 0.05 0.05 0.05 0.06 0.07 0.07 0.06 0.04 0.04 0.04 0.04 0.03 0.03 0.02 0.03 0.04 0.02 0.01 0.01 0.01 0.02 0.02 0.02 0.03
0.04 0.05 0.06 0.09 0.15 0.19 0.21 0.16 0.12 0.11 0.11 0.12 0.13 0.11 0.10 0.08 0.07 0.04 0.03 0.04 0.04 0.03 0.04 0.07 0.07 0.06 0.06 0.06 0.05 0.04 0.03 0.03 0.03 0.03 0.03 0.03 0.02 0.01 0.01 0.02 0.02 0.02 0.03
MSLP
1010.82 1010.99 1011.31 1011.74 1012.20 1012.62 1012.96 1013.19 1013.33 1013.42 1013.52 1013.68 1013.92 1014.24 1014.59 1014.93 1015.20 1015.38 1015.46 1015.45 1015.42 1015.41 1015.46 1015.59 1015.79 1016.02 1016.25 1016.42 1016.52 1016.54 1016.51 1016.46 1016.44 1016.47 1016.57 1016.74 1016.94 1017.16 1017.37 1017.54 1017.67 1017.79 1017.89
1010.59 1010.90 1011.36 1011.92 1012.47 1012.96 1013.31 1013.52 1013.62 1013.65 1013.70 1013.83 1014.06 1014.38 1014.76 1015.13 1015.44 1015.64 1015.72 1015.72 1015.68 1015.66 1015.71 1015.85 1016.07 1016.34 1016.59 1016.80 1016.92 1016.94 1016.91 1016.85 1016.81 1016.83 1016.94 1017.11 1017.34 1017.59 1017.82 1018.01 1018.16 1018.27 1018.37
1010.39 1010.83 1011.42 1012.08 1012.73 1013.28 1013.67 1013.88 1013.96 1013.97 1013.99 1014.08 1014.29 1014.60 1014.97 1015.34 1015.65 1015.85 1015.93 1015.93 1015.89 1015.88 1015.95 1016.11 1016.37 1016.67 1016.95 1017.18 1017.30 1017.33 1017.28 1017.20 1017.15 1017.17 1017.27 1017.47 1017.72 1017.99 1018.25 1018.47 1018.64 1018.77 1018.87
1010.26 1010.79 1011.46 1012.22 1012.94 1013.55 1013.99 1014.24 1014.34 1014.35 1014.36 1014.44 1014.62 1014.90 1015.25 1015.59 1015.87 1016.06 1016.13 1016.12 1016.10 1016.12 1016.21 1016.42 1016.71 1017.03 1017.34 1017.57 1017.69 1017.70 1017.63 1017.53 1017.46 1017.47 1017.59 1017.80 1018.08 1018.38 1018.67 1018.92 1019.11 1019.25 1019.36
1010.19 1010.76 1011.49 1012.30 1013.08 1013.75 1014.25 1014.55 1014.69 1014.73 1014.76 1014.84 1015.01 1015.26 1015.57 1015.87 1016.12 1016.27 1016.34 1016.34 1016.34 1016.39 1016.52 1016.76 1017.08 1017.43 1017.74 1017.96 1018.06 1018.04 1017.95 1017.83 1017.75 1017.77 1017.89 1018.12 1018.43 1018.76 1019.07 1019.34 1019.54 1019.69 1019.80
1010.18 1010.76 1011.50 1012.33 1013.14 1013.85 1014.40 1014.77 1014.97 1015.07 1015.14 1015.24 1015.40 1015.64 1015.91 1016.17 1016.38 1016.51 1016.57 1016.58 1016.61 1016.70 1016.87 1017.15 1017.49 1017.84 1018.14 1018.33 1018.40 1018.35 1018.23 1018.10 1018.02 1018.04 1018.19 1018.44 1018.77 1019.12 1019.44 1019.72 1019.92 1020.07 1020.18
1010.23 1010.79 1011.50 1012.31 1013.13 1013.86 1014.45 1014.87 1015.14 1015.30 1015.42 1015.56 1015.74 1015.97 1016.22 1016.46 1016.64 1016.76 1016.82 1016.85 1016.91 1017.04 1017.25 1017.54 1017.88 1018.22 1018.49 1018.65 1018.68 1018.61 1018.47 1018.33 1018.26 1018.31 1018.48 1018.76 1019.10 1019.46 1019.79 1020.06 1020.25 1020.38 1020.48
1010.34 1010.86 1011.52 1012.29 1013.07 1013.79 1014.39 1014.85 1015.17 1015.40 1015.58 1015.77 1015.98 1016.22 1016.46 1016.69 1016.87 1016.99 1017.06 1017.12 1017.22 1017.37 1017.60 1017.90 1018.23 1018.54 1018.77 1018.89 1018.88 1018.78 1018.64 1018.52 1018.47 1018.56 1018.76 1019.07 1019.44 1019.81 1020.13 1020.37 1020.54 1020.64 1020.71
1010.52 1010.99 1011.59 1012.29 1013.01 1013.69 1014.27 1014.74 1015.09 1015.37 1015.60 1015.83 1016.08 1016.34 1016.60 1016.84 1017.04 1017.18 1017.28 1017.37 1017.49 1017.67 1017.91 1018.20 1018.50 1018.76 1018.95 1019.02 1018.99 1018.88 1018.75 1018.66 1018.66 1018.79 1019.04 1019.39 1019.78 1020.15 1020.46 1020.68 1020.81 1020.88 1020.92
1010.77 1011.20 1011.73 1012.35 1012.99 1013.60 1014.13 1014.57 1014.93 1015.22 1015.49 1015.76 1016.04 1016.34 1016.64 1016.91 1017.13 1017.31 1017.45 1017.57 1017.72 1017.91 1018.14 1018.40 1018.66 1018.88 1019.02 1019.06 1019.01 1018.91 1018.81 1018.76 1018.82 1019.01 1019.31 1019.70 1020.11 1020.49 1020.79 1020.99 1021.09 1021.13 1021.14
1011.08 1011.48 1011.96 1012.50 1013.05 1013.57 1014.02 1014.40 1014.73 1015.01 1015.29 1015.58 1015.90 1016.23 1016.57 1016.89 1017.16 1017.38 1017.56 1017.72 1017.88 1018.07 1018.29 1018.52 1018.74 1018.91 1019.01 1019.03 1018.98 1018.90 1018.84 1018.84 1018.96 1019.21 1019.57 1019.99 1020.43 1020.82 1021.12 1021.31 1021.39 1021.41 1021.39
1011.41 1011.81 1012.26 1012.73 1013.18 1013.60 1013.96 1014.26 1014.52 1014.77 1015.04 1015.34 1015.68 1016.05 1016.44 1016.80 1017.12 1017.39 1017.62 1017.81 1017.99 1018.18 1018.38 1018.57 1018.75 1018.89 1018.96 1018.97 1018.93 1018.88 1018.86 1018.93 1019.10 1019.40 1019.80 1020.25 1020.71 1021.11 1021.41 1021.61 1021.69 1021.71 1021.69
1011.71 1012.14 1012.57 1012.98 1013.36 1013.68 1013.94 1014.15 1014.35 1014.55 1014.78 1015.08 1015.44 1015.84 1016.26 1016.67 1017.05 1017.37 1017.63 1017.86 1018.05 1018.24 1018.42 1018.59 1018.74 1018.85 1018.91 1018.92 1018.90 1018.89 1018.92 1019.03 1019.24 1019.57 1019.98 1020.45 1020.91 1021.32 1021.64 1021.85 1021.96 1021.99 1021.99
1011.93 1012.40 1012.83 1013.21 1013.53 1013.77 1013.95 1014.09 1014.21 1014.36 1014.56 1014.84 1015.20 1015.62 1016.08 1016.53 1016.95 1017.31 1017.62 1017.87 1018.08 1018.27 1018.44 1018.59 1018.73 1018.83 1018.89 1018.92 1018.93 1018.95 1019.02 1019.15 1019.38 1019.71 1020.12 1020.57 1021.03 1021.43 1021.76 1021.99 1022.14 1022.21 1022.24
1012.01 1012.52 1012.98 1013.35 1013.64 1013.83 1013.96 1014.04 1014.11 1014.21 1014.39 1014.65 1015.00 1015.43 1015.90 1016.38 1016.83 1017.24 1017.57 1017.85 1018.08 1018.27 1018.45 1018.60 1018.74 1018.85 1018.93 1018.99 1019.03 1019.08 1019.16 1019.30 1019.52 1019.83 1020.20 1020.61 1021.03 1021.42 1021.75 1022.01 1022.19 1022.31 1022.39
1011.91 1012.47 1012.95 1013.34 1013.63 1013.81 1013.92 1013.98 1014.03 1014.11 1014.26 1014.51 1014.85 1015.27 1015.75 1016.24 1016.71 1017.13 1017.50 1017.80 1018.05 1018.26 1018.45 1018.62 1018.77 1018.91 1019.03 1019.12 1019.19 1019.27 1019.36 1019.49 1019.67 1019.91 1020.22 1020.56 1020.92 1021.27 1021.59 1021.87 1022.09 1022.26 1022.40
1011.65 1012.23 1012.74 1013.16 1013.48 1013.69 1013.82 1013.90 1013.96 1014.04 1014.19 1014.42 1014.74 1015.15 1015.61 1016.09 1016.56 1017.00 1017.38 1017.70 1017.98 1018.22 1018.43 1018.63 1018.82 1019.00 1019.16 1019.29 1019.40 1019.49 1019.58 1019.68 1019.81 1019.98 1020.20 1020.45 1020.74 1021.03 1021.33 1021.60 1021.85 1022.08 1022.27
1011.24 1011.84 1012.38 1012.83 1013.20 1013.47 1013.65 1013.78 1013.88 1013.98 1014.14 1014.36 1014.66 1015.04 1015.47 1015.93 1016.39 1016.82 1017.21 1017.56 1017.86 1018.13 1018.39 1018.63 1018.86 1019.09 1019.29 1019.46 1019.60 1019.71 1019.80 1019.87 1019.94 1020.04 1020.16 1020.32 1020.52 1020.75 1021.00 1021.26 1021.52 1021.78 1022.02
1010.76 1011.35 1011.90 1012.40 1012.82 1013.16 1013.42 1013.62 1013.78 1013.92 1014.09 1014.31 1014.58 1014.92 1015.32 1015.74 1016.18 1016.60 1017.00 1017.36 1017.69 1018.01 1018.30 1018.59 1018.87 1019.14 1019.39 1019.61 1019.78 1019.91 1019.99 1020.04 1020.06 1020.08 1020.12 1020.19 1020.30 1020.45 1020.65 1020.88 1021.14 1021.42 1021.70
1010.28 1010.84 1011.40 1011.93 1012.40 1012.82 1013.15 1013.43 1013.64 1013.83 1014.02 1014.23 1014.48 1014.78 1015.13 1015.52 1015.93 1016.34 1016.74 1017.12 1017.49 1017.83 1018.17 1018.51 1018.83 1019.15 1019.43 1019.69 1019.89 1020.03 1020.12 1020.15 1020.14 1020.11 1020.08 1020.08 1020.11 1020.19 1020.33 1020.52 1020.76 1021.03 1021.33
1009.86 1010.39 1010.93 1011.47 1011.98 1012.45 1012.85 1013.18 1013.46 1013.68 1013.89 1014.09 1014.32 1014.59 1014.90 1015.26 1015.64 1016.04 1016.45 1016.85 1017.25 1017.63 1018.01 1018.38 1018.74 1019.08 1019.40 1019.68 1019.90 1020.06 1020.16 1020.19 1020.17 1020.11 1020.04 1019.98 1019.95 1019.97 1020.05 1020.19 1020.39 1020.65 1020.94
1009.57 1010.04 1010.55 1011.07 1011.59 1012.07 1012.51 1012.88 1013.19 1013.44 1013.66 1013.86 1014.08 1014.33 1014.62 1014.95 1015.33 1015.73 1016.15 1016.57 1017.00 1017.41 1017.81 1018.21 1018.59 1018.94 1019.27 1019.56 1019.80 1019.98 1020.09 1020.13 1020.11 1020.05 1019.96 1019.87 1019.80 1019.77 1019.79 1019.88 1020.04 1020.26 1020.52
1009.41 1009.83 1010.28 1010.75 1011.23 1011.69 1012.11 1012.49 1012.80 1013.07 1013.29 1013.50 1013.72 1013.97 1014.26 1014.60 1014.98 1015.40 1015.84 1016.29 1016.74 1017.18 1017.60 1018.00 1018.38 1018.73 1019.06 1019.34 1019.58 1019.77 1019.89 1019.95 1019.96 1019.91 1019.82 1019.73 1019.64 1019.57 1019.55 1019.58 1019.68 1019.85 1020.07
1009.39 1009.73 1010.10 1010.49 1010.89 1011.28 1011.65 1011.98 1012.28 1012.54 1012.77 1013.00 1013.24 1013.51 1013.83 1014.20 1014.61 1015.06 1015.53 1016.01 1016.47 1016.92 1017.35 1017.74 1018.11 1018.44 1018.75 1019.02 1019.25 1019.44 1019.57 1019.66 1019.69 1019.67 1019.61 1019.52 1019.42 1019.34 1019.27 1019.26 1019.30 1019.40 1019.57
1009.46 1009.72 1009.99 1010.26 1010.55 1010.83 1011.10 1011.37 1011.62 1011.86 1012.11 1012.36 1012.64 1012.96 1013.33 1013.74 1014.20 1014.69 1015.20 1015.70 1016.19 1016.64 1017.06 1017.44 1017.78 1018.09 1018.36 1018.61 1018.83 1019.01 1019.16 1019.27 1019.33 1019.34 1019.31 1019.25 1019.16 1019.06 1018.97 1018.91 1018.88 1018.92 1019.02
1009.60 1009.77 1009.91 1010.05 1010.19 1010.33 1010.49 1010.66 1010.86 1011.07 1011.32 1011.61 1011.95 1012.33 1012.76 1013.24 1013.76 1014.30 1014.84 1015.36 1015.86 1016.32 1016.72 1017.08 1017.40 1017.67 1017.92 1018.14 1018.34 1018.52 1018.68 1018.81 1018.90 1018.96 1018.96 1018.93 1018.86 1018.76 1018.65 1018.54 1018.47 1018.44 1018.47
Thickness
5799 5796 5785 5783 5783 5782 5781 5780 5778 5776 5774 5772 5770 5769 5768 5767 5766 5765 5764 5763 5762 5762 5761 5760 5759 5757 5756 5755 5753 5752 5751 5750 5749 5748 5746 5745 5744 5742 5742 5741 5742 5740 5736
5803 5795 5784 5782 5781 5780 5779 5778 5776 5774 5772 5770 5769 5767 5766 5765 5764 5763 5762 5761 5761 5760 5759 5758 5757 5755 5754 5753 5751 5750 5749 5748 5747 5746 5745 5743 5742 5740 5740 5740 5741 5738 5734
5802 5794 5785 5781 5780 5778 5777 5776 5774 5772 5770 5769 5767 5765 5764 5763 5762 5761 5760 5759 5759 5758 5757 5756 5755 5753 5752 5751 5749 5748 5747 5746 5745 5745 5746 5746 5741 5738 5738 5737 5736 5734 5733
5801 5793 5786 5779 5778 5776 5775 5773 5772 5770 5768 5767 5765 5764 5762 5761 5761 5760 5758 5758 5757 5756 5755 5754 5753 5751 5750 5749 5747 5746 5745 5744 5744 5746 5749 5747 5742 5737 5735 5735 5734 5733 5731
5799 5793 5784 5778 5776 5774 5773 5771 5770 5768 5766 5765 5763 5762 5761 5760 5759 5758 5757 5756 5755 5754 5753 5752 5751 5749 5748 5747 5745 5744 5743 5743 5745 5748 5747 5744 5740 5735 5734 5733 5732 5731 5729
5797 5791 5782 5777 5774 5772 5771 5769 5768 5766 5765 5763 5762 5760 5759 5758 5757 5756 5755 5754 5753 5752 5750 5749 5748 5747 5746 5745 5744 5743 5742 5743 5746 5747 5745 5743 5739 5734 5732 5731 5730 5729 5728
5797 5791 5781 5775 5772 5770 5769 5767 5766 5764 5763 5762 5760 5759 5758 5757 5755 5754 5753 5752 5751 5750 5748 5747 5746 5745 5744 5743 5742 5741 5741 5743 5748 5745 5743 5740 5735 5732 5731 5730 5729 5728 5727
5796 5790 5779 5772 5770 5768 5766 5765 5764 5762 5761 5760 5759 5757 5756 5755 5753 5752 5751 5750 5749 5748 5746 5745 5744 5743 5742 5741 5740 5739 5740 5742 5744 5743 5741 5737 5732 5730 5729 5728 5727 5726 5725
5795 5789 5780 5775 5769 5766 5765 5763 5761 5760 5759 5758 5757 5755 5754 5753 5751 5750 5749 5748 5747 5745 5744 5743 5742 5741 5740 5739 5738 5738 5738 5741 5745 5742 5740 5735 5730 5729 5728 5726 5725 5724 5723
5792 5788 5782 5777 5772 5768 5765 5761 5760 5758 5757 5756 5755 5754 5752 5751 5749 5748 5747 5746 5745 5744 5742 5741 5741 5740 5739 5738 5737 5736 5737 5740 5744 5741 5738 5732 5728 5727 5726 5725 5723 5722 5721
5786 5785 5782 5777 5773 5771 5768 5762 5759 5757 5755 5754 5753 5752 5751 5753 5752 5749 5747 5744 5743 5742 5740 5740 5739 5738 5738 5737 5736 5736 5737 5742 5742 5741 5736 5729 5726 5725 5724 5723 5722 5720 5719
5782 5782 5781 5777 5773 5772 5769 5763 5761 5760 5756 5756 5755 5753 5753 5752 5752 5751 5744 5743 5741 5740 5739 5738 5738 5738 5739 5740 5736 5736 5741 5741 5741 5738 5732 5727 5725 5724 5722 5721 5720 5719 5718
5783 5781 5780 5776 5773 5772 5769 5765 5763 5762 5757 5756 5755 5753 5752 5751 5751 5749 5746 5743 5741 5740 5741 5738 5740 5742 5742 5741 5740 5740 5740 5741 5740 5738 5730 5725 5724 5722 5721 5720 5719 5718 5717
5783 5780 5779 5775 5771 5769 5768 5766 5764 5762 5759 5757 5754 5753 5752 5752 5750 5749 5747 5745 5744 5742 5741 5742 5741 5741 5740 5739 5739 5739 5738 5739 5739 5736 5728 5724 5722 5721 5720 5719 5718 5717 5716
5782 5780 5777 5773 5770 5767 5765 5764 5764 5762 5760 5757 5753 5752 5751 5751 5749 5748 5745 5744 5745 5743 5741 5740 5740 5739 5738 5738 5738 5737 5737 5736 5736 5735 5729 5724 5722 5720 5719 5718 5717 5716 5715
5783 5780 5776 5771 5768 5765 5763 5762 5761 5760 5757 5756 5753 5751 5749 5750 5748 5746 5744 5743 5744 5742 5742 5740 5740 5738 5738 5738 5738 5736 5735 5735 5734 5733 5731 5725 5722 5720 5719 5718 5717 5716 5715
5784 5781 5775 5770 5767 5764 5762 5760 5759 5758 5756 5755 5753 5749 5748 5748 5746 5745 5745 5743 5743 5741 5738 5738 5738 5738 5737 5737 5737 5736 5735 5733 5733 5732 5731 5729 5725 5722 5720 5718 5717 5716 5715
5785 5780 5775 5772 5767 5763 5760 5758 5758 5757 5756 5754 5752 5749 5747 5746 5744 5743 5744 5744 5741 5740 5739 5739 5738 5738 5737 5737 5736 5736 5735 5732 5732 5731 5731 5730 5729 5728 5723 5720 5718 5717 5716
5786 5780 5774 5771 5767 5762 5759 5756 5756 5754 5753 5752 5751 5749 5747 5745 5743 5743 5743 5743 5740 5740 5740 5740 5739 5738 5736 5735 5736 5735 5735 5735 5733 5733 5732 5731 5729 5728 5727 5722 5720 5718 5717
5785 5780 5774 5769 5765 5760 5757 5754 5752 5751 5751 5750 5749 5748 5746 5744 5742 5742 5742 5740 5740 5740 5738 5738 5736 5735 5735 5734 5738 5736 5736 5736 5735 5734 5733 5733 5731 5730 5729 5727 5724 5722 5719
5783 5778 5773 5768 5764 5759 5756 5752 5749 5748 5749 5749 5748 5746 5744 5743 5741 5740 5742 5739 5739 5739 5738 5737 5735 5733 5733 5735 5733 5732 5734 5736 5735 5734 5734 5735 5734 5732 5730 5728 5728 5727 5724
5782 5778 5773 5767 5763 5760 5758 5754 5752 5750 5750 5750 5748 5745 5743 5742 5740 5740 5740 5739 5738 5738 5736 5736 5734 5733 5733 5734 5731 5728 5726 5729 5732 5737 5736 5734 5735 5734 5732 5731 5729 5727 5727
5783 5779 5775 5769 5765 5760 5757 5753 5750 5747 5746 5747 5746 5745 5743 5742 5740 5739 5739 5739 5738 5739 5737 5735 5734 5731 5730 5732 5733 5730 5725 5724 5731 5736 5736 5736 5735 5734 5734 5733 5731 5729 5727
5786 5781 5777 5771 5766 5761 5757 5753 5749 5747 5746 5747 5746 5746 5744 5742 5740 5739 5738 5738 5737 5739 5737 5736 5736 5734 5730 5729 5731 5731 5732 5733 5727 5728 5733 5737 5736 5734 5735 5735 5734 5731 5729
5788 5783 5777 5771 5766 5762 5757 5754 5749 5748 5749 5749 5747 5745 5743 5742 5741 5740 5739 5738 5737 5738 5737 5736 5735 5733 5733 5732 5731 5731 5730 5730 5730 5727 5726 5731 5735 5737 5737 5735 5734 5733 5731
5787 5782 5777 5770 5765 5762 5758 5755 5751 5749 5748 5747 5745 5744 5742 5743 5742 5740 5739 5738 5737 5738 5737 5735 5734 5732 5732 5732 5732 5732 5730 5729 5729 5729 5726 5727 5730 5736 5737 5736 5735 5734 5732